When you browse on this site, cookies collect data to enhance your experience and personalize the content and advertising you see.
Visit our Privacy Policy to learn more. By continuing to use the site, you agree to this use of cookies and data.
  • In Hungary
  • List of Countries
  • For 7 days
  • Water Temperature
  • Satellite Maps
  • Weather Map
  • News
  • Weather Widgets
  • user-avatar
    Login

    Hourly Weather Barcelona

    Today, 24 March, Sunday

    Time Temperature Precipitation Wind Pressure Humidity
    00:00 +17°C° 0 mm 3 mps 764 mmHg 32%
    01:00 +17°C° 0 mm 3 mps 764 mmHg 34%
    02:00 +17°C° 0 mm 3 mps 763 mmHg 37%
    03:00 +16°C° 0 mm 2 mps 763 mmHg 39%
    04:00 +16°C° 0 mm 2 mps 763 mmHg 40%
    05:00 +16°C° 0 mm 2 mps 763 mmHg 41%
    06:00 +16°C° 0 mm 2 mps 763 mmHg 42%
    07:00 +17°C° 0 mm 2 mps 763 mmHg 39%
    08:00 +20°C° 0 mm 1 mps 764 mmHg 36%
    09:00 +21°C° 0 mm 1 mps 764 mmHg 33%
    10:00 +22°C° 0 mm 1 mps 763 mmHg 33%
    11:00 +23°C° 0 mm 2 mps 763 mmHg 32%
    12:00 +22°C° 0 mm 3 mps 763 mmHg 32%
    13:00 +22°C° 0 mm 3 mps 763 mmHg 34%
    14:00 +22°C° 0 mm 3 mps 763 mmHg 37%
    15:00 +22°C° 0 mm 3 mps 762 mmHg 39%
    16:00 +21°C° 0 mm 2 mps 762 mmHg 42%
    17:00 +21°C° 0 mm 1 mps 762 mmHg 46%
    18:00 +20°C° 0 mm 1 mps 762 mmHg 49%
    19:00 +20°C° 0 mm 1 mps 762 mmHg 49%
    20:00 +19°C° 0 mm 1 mps 762 mmHg 50%
    21:00 +19°C° 0 mm 1 mps 763 mmHg 51%
    22:00 +19°C° 0 mm 1 mps 763 mmHg 50%
    23:00 +18°C° 0 mm 1 mps 763 mmHg 50%

    Tomorrow, 25 March, Monday

    Time Temperature Precipitation Wind Pressure Humidity
    00:00 +18°C° 0 mm 1 mps 763 mmHg 50%
    01:00 +18°C° 0 mm 1 mps 762 mmHg 51%
    02:00 +18°C° 0 mm 1 mps 762 mmHg 51%
    03:00 +16°C° 0 mm 1 mps 762 mmHg 52%
    04:00 +16°C° 0 mm 1 mps 762 mmHg 54%
    05:00 +16°C° 0 mm 1 mps 762 mmHg 55%
    06:00 +15°C° 0 mm 1 mps 762 mmHg 57%
    07:00 +18°C° 0 mm 1 mps 762 mmHg 53%
    08:00 +19°C° 0 mm 1 mps 762 mmHg 50%
    09:00 +20°C° 0 mm 1 mps 762 mmHg 46%
    10:00 +21°C° 0 mm 1 mps 761 mmHg 43%
    11:00 +21°C° 0 mm 2 mps 761 mmHg 40%
    12:00 +21°C° 0 mm 3 mps 761 mmHg 37%
    13:00 +22°C° 0 mm 3 mps 761 mmHg 36%
    14:00 +22°C° 0 mm 4 mps 760 mmHg 36%
    15:00 +23°C° 0 mm 4 mps 760 mmHg 35%
    16:00 +21°C° 0 mm 4 mps 759 mmHg 41%
    17:00 +20°C° 0 mm 4 mps 759 mmHg 46%
    18:00 +19°C° 0 mm 4 mps 759 mmHg 51%
    19:00 +18°C° 0 mm 4 mps 760 mmHg 55%
    20:00 +17°C° 0 mm 4 mps 761 mmHg 59%
    21:00 +17°C° 0 mm 4 mps 761 mmHg 63%
    22:00 +16°C° 0 mm 3 mps 761 mmHg 65%
    23:00 +16°C° 0 mm 3 mps 761 mmHg 67%

    Day after tomorrow, 26 March, Tuesday

    Time Temperature Precipitation Wind Pressure Humidity
    00:00 +16°C° 0 mm 3 mps 761 mmHg 69%
    01:00 +16°C° 0 mm 3 mps 762 mmHg 67%
    02:00 +14°C° 0 mm 3 mps 762 mmHg 66%
    03:00 +14°C° 0 mm 4 mps 762 mmHg 64%
    04:00 +13°C° 0 mm 3 mps 762 mmHg 62%
    05:00 +13°C° 0 mm 3 mps 762 mmHg 59%
    06:00 +14°C° 0 mm 2 mps 763 mmHg 57%
    07:00 +14°C° 0 mm 3 mps 763 mmHg 49%
    08:00 +16°C° 0 mm 3 mps 763 mmHg 42%
    09:00 +17°C° 0 mm 3 mps 763 mmHg 34%
    10:00 +17°C° 0 mm 4 mps 763 mmHg 30%
    11:00 +17°C° 0 mm 5 mps 763 mmHg 25%
    12:00 +19°C° 0 mm 6 mps 763 mmHg 20%
    13:00 +18°C° 0 mm 7 mps 763 mmHg 21%
    14:00 +18°C° 0 mm 7 mps 762 mmHg 22%
    15:00 +17°C° 0 mm 8 mps 762 mmHg 24%
    16:00 +17°C° 0 mm 7 mps 762 mmHg 27%
    17:00 +16°C° 0 mm 6 mps 763 mmHg 30%
    18:00 +15°C° 0 mm 5 mps 763 mmHg 33%
    19:00 +15°C° 0 mm 5 mps 763 mmHg 35%
    20:00 +14°C° 0 mm 5 mps 764 mmHg 37%
    21:00 +14°C° 0 mm 4 mps 765 mmHg 39%
    22:00 +14°C° 0 mm 4 mps 765 mmHg 40%
    23:00 +13°C° 0 mm 3 mps 765 mmHg 42%

    27 March, Wednesday

    Time Temperature Precipitation Wind Pressure Humidity
    00:00 +13°C° 0 mm 3 mps 765 mmHg 43%
    01:00 +12°C° 0 mm 3 mps 765 mmHg 43%
    02:00 +12°C° 0 mm 3 mps 765 mmHg 43%
    03:00 +12°C° 0 mm 3 mps 765 mmHg 43%
    04:00 +11°C° 0 mm 3 mps 765 mmHg 42%
    05:00 +11°C° 0 mm 3 mps 765 mmHg 41%
    06:00 +11°C° 0 mm 3 mps 765 mmHg 40%
    07:00 +12°C° 0 mm 3 mps 765 mmHg 35%
    08:00 +14°C° 0 mm 2 mps 765 mmHg 31%
    09:00 +15°C° 0 mm 2 mps 765 mmHg 26%
    10:00 +16°C° 0 mm 3 mps 765 mmHg 25%
    11:00 +17°C° 0 mm 3 mps 765 mmHg 24%
    12:00 +18°C° 0 mm 3 mps 765 mmHg 22%
    13:00 +18°C° 0 mm 4 mps 765 mmHg 25%
    14:00 +18°C° 0 mm 4 mps 764 mmHg 27%
    15:00 +17°C° 0 mm 4 mps 764 mmHg 30%
    16:00 +17°C° 0 mm 4 mps 764 mmHg 34%
    17:00 +15°C° 0 mm 4 mps 764 mmHg 39%
    18:00 +14°C° 0 mm 3 mps 765 mmHg 44%
    19:00 +15°C° 0 mm 2 mps 765 mmHg 44%
    20:00 +14°C° 0 mm 2 mps 766 mmHg 45%
    21:00 +14°C° 0 mm 1 mps 766 mmHg 46%
    22:00 +14°C° 0 mm 1 mps 766 mmHg 46%
    23:00 +14°C° 0 mm 2 mps 766 mmHg 47%

    28 March, Thursday

    Time Temperature Precipitation Wind Pressure Humidity
    00:00 +13°C° 0 mm 2 mps 766 mmHg 47%
    01:00 +13°C° 0 mm 2 mps 766 mmHg 47%
    02:00 +12°C° 0 mm 3 mps 766 mmHg 46%
    03:00 +12°C° 0 mm 3 mps 766 mmHg 46%
    04:00 +11°C° 0 mm 3 mps 766 mmHg 46%
    05:00 +11°C° 0 mm 3 mps 766 mmHg 47%
    06:00 +11°C° 0 mm 3 mps 766 mmHg 47%
    07:00 +12°C° 0 mm 3 mps 766 mmHg 44%
    08:00 +14°C° 0 mm 3 mps 767 mmHg 41%
    09:00 +16°C° 0 mm 3 mps 767 mmHg 38%
    10:00 +16°C° 0 mm 3 mps 767 mmHg 37%
    11:00 +17°C° 0 mm 4 mps 767 mmHg 36%
    12:00 +18°C° 0 mm 4 mps 766 mmHg 35%
    13:00 +18°C° 0 mm 4 mps 766 mmHg 37%
    14:00 +18°C° 0 mm 4 mps 766 mmHg 39%
    15:00 +17°C° 0 mm 4 mps 765 mmHg 41%
    16:00 +17°C° 0 mm 4 mps 766 mmHg 43%
    17:00 +15°C° 0 mm 4 mps 766 mmHg 45%
    18:00 +14°C° 0 mm 3 mps 766 mmHg 47%
    19:00 +14°C° 0 mm 3 mps 766 mmHg 48%
    20:00 +15°C° 0 mm 2 mps 767 mmHg 49%
    21:00 +14°C° 0 mm 1 mps 767 mmHg 51%
    22:00 +14°C° 0 mm 1 mps 767 mmHg 51%
    23:00 +14°C° 0 mm 1 mps 767 mmHg 51%

    29 March, Friday

    Time Temperature Precipitation Wind Pressure Humidity
    00:00 +14°C° 0 mm 1 mps 767 mmHg 51%
    01:00 +13°C° 0 mm 1 mps 767 mmHg 51%
    02:00 +13°C° 0 mm 1 mps 767 mmHg 51%
    03:00 +13°C° 0 mm 1 mps 766 mmHg 51%
    04:00 +13°C° 0 mm 1 mps 767 mmHg 51%
    05:00 +13°C° 0 mm 1 mps 767 mmHg 52%
    06:00 +12°C° 0 mm 2 mps 767 mmHg 53%
    07:00 +14°C° 0 mm 1 mps 767 mmHg 48%
    08:00 +15°C° 0 mm 1 mps 767 mmHg 43%
    09:00 +16°C° 0 mm 1 mps 767 mmHg 38%
    10:00 +17°C° 0 mm 2 mps 767 mmHg 37%
    11:00 +17°C° 0 mm 2 mps 767 mmHg 35%
    12:00 +18°C° 0 mm 3 mps 766 mmHg 33%
    13:00 +18°C° 0 mm 3 mps 766 mmHg 35%
    14:00 +18°C° 0 mm 3 mps 766 mmHg 36%
    15:00 +18°C° 0 mm 4 mps 765 mmHg 37%
    16:00 +17°C° 0 mm 3 mps 765 mmHg 41%
    17:00 +16°C° 0 mm 3 mps 765 mmHg 45%
    18:00 +14°C° 0 mm 3 mps 765 mmHg 49%
    19:00 +15°C° 0 mm 2 mps 765 mmHg 51%
    20:00 +15°C° 0 mm 2 mps 766 mmHg 54%
    21:00 +14°C° 0 mm 1 mps 766 mmHg 57%
    22:00 +14°C° 0 mm 1 mps 766 mmHg 57%
    23:00 +14°C° 0 mm 2 mps 766 mmHg 57%
    Show more